Find Starlink 30295

NORAD ID: 57683 Int'l Des: 2023-124 Owner: SPXS Country: US Constellation: starlink operational
LEOCIRCULAR

当前视图

正在加载3D地球...

About Starlink 30295

Starlink 30295 (NORAD 57683) is a starlink constellation satellite (v2 mini) launched Aug 22, 2023 by SPXS of US. It operates in LEO, CIRCULAR orbit with a mass of 730.00 kg.

关于 Starlink 30295

正在加载描述...

即将过境

Passes for default location (London). Set your location on the main map for personalized predictions.

高度历史

Loading altitude history...

两行轨道根数

1 57683U 23124W 26171.16851490 .00000867 00000-0 41385-4 0 9998
2 57683 53.1602 91.0642 0001601 89.4136 270.7048 15.30203299159253
Epoch: Jun 20, 2026 • Age: 27 hours

当前状态

高度 481.4 km
速度 7.62 km/s
星下点 -20.51°S, 61.56°E
发射日期 Aug 22, 2023
运行时间 2.8 years
类型 internet

技术详情

分类 Payload
质量 730.00 kg
干质量 700.00 kg
总质量 730.00 kg
长度 0.30 m
直径 4.10 m
跨度 29.00 m
形状 Box + pan
制造商 SPXS
平台类型 Starlink V2M
阶段状态 In Orbit
所有者/国家 SPXS/US

Most Searched